This is the latest recevied weather packets stored in our database for station/object VE6HFD-WX. If no packets are shown the sender has not sent any weather packets the latest 10 day(s).
| Time | Temp. | Humidity | Pressure | Rain* | Wind** | Luminosity | Snow |
|---|---|---|---|---|---|---|---|
| 1777780566 | 10° C | 60% | 1010.3 hPa | 0 mm | - | - | - |
| 1777780266 | 10.56° C | 59% | 1010.3 hPa | 0 mm | - | - | - |
| 1777779936 | 10.56° C | 57% | 1010.3 hPa | 0 mm | - | - | - |
| 1777779636 | 10.56° C | 58% | 1010.3 hPa | 0 mm | - | - | - |
| 1777779336 | 10.56° C | 57% | 1010.4 hPa | 0 mm | - | - | - |
| 1777779006 | 11.11° C | 56% | 1010.4 hPa | 0 mm | - | - | - |
| 1777778706 | 11.11° C | 55% | 1010.3 hPa | 0 mm | - | - | - |
| 1777778406 | 11.67° C | 55% | 1010.3 hPa | 0 mm | - | - | - |
| 1777778076 | 11.67° C | 53% | 1010.2 hPa | 0 mm | - | - | - |
| 1777777746 | 12.22° C | 52% | 1010.3 hPa | 0 mm | - | - | - |
| 1777777446 | 12.22° C | 53% | 1010.2 hPa | 0 mm | - | - | - |
| 1777777116 | 13.33° C | 48% | 1010.2 hPa | 0 mm | - | - | - |
| 1777776816 | 13.89° C | 46% | 1010.2 hPa | 0 mm | - | - | - |
| 1777776486 | 13.89° C | 46% | 1010.2 hPa | 0 mm | - | - | - |
| 1777776186 | 14.44° C | 41% | 1010.3 hPa | 0 mm | - | - | - |
| 1777775886 | 15° C | 40% | 1010.2 hPa | 0 mm | - | - | - |
| 1777775556 | 15.56° C | 38% | 1010.2 hPa | 0 mm | - | - | - |
| 1777775226 | 16.11° C | 36% | 1010.2 hPa | 0 mm | - | - | - |
| 1777774896 | 16.11° C | 36% | 1010.2 hPa | 0 mm | - | - | - |
| 1777774566 | 16.67° C | 35% | 1010.3 hPa | 0 mm | - | - | - |
| 1777774266 | 17.22° C | 37% | 1010.2 hPa | 0 mm | - | - | - |
| 1777773966 | 17.22° C | 36% | 1010.3 hPa | 0 mm | - | - | - |
| 1777773636 | 17.78° C | 37% | 1010.4 hPa | 0 mm | - | - | - |
| 1777773306 | 17.78° C | 34% | 1010.5 hPa | 0 mm | - | - | - |
| 1777773006 | 17.78° C | 33% | 1010.6 hPa | 0 mm | - | - | - |
* Rain latest hour (hover to see other rain measurements)
** Current wind speed in m/s (hover to see current wind gust speed)